Preview of NWS' New Version of Forecast
This preview is not operational and should not be used for support decisions.

Regional Weather Roundup (RWR)

Issued by National Weather Service (NWS)

                            
000
ASUS46 KSEW 231510
RWRWA 

WASHINGTON REGIONAL WEATHER ROUNDUP
NATIONAL WEATHER SERVICE SEATTLE WA
800 AM PDT TUE JUL 23 2019

NOTE:"FAIR" INDICATES FEW OR NO CLOUDS BELOW 12,000 FEET WITH NO 
SIGNIFICANT WEATHER AND/OR OBSTRUCTIONS TO VISIBILITY.

WAZ507-509-555>559-231600-
SEATTLE, TACOMA, EVERETT, AND VICINITY
  
CITY           SKY/WX    TMP DP  RH WIND       PRES   REMARKS
EVERETT        CLOUDY    59  56  89 NE5       30.11R                  
BOEING FIELD   CLOUDY    63  56  78 S6        30.10R                  
RENTON         CLOUDY    63  57  81 CALM      30.09S                  
SEATAC AIRPORT CLOUDY    60  56  86 SW5       30.10S                  
JBLM-MCCHORD   CLOUDY    61  61  99 S3        30.10S                  
PUYALLUP       CLOUDY    61  59  94 CALM      30.10S                  
BREMERTON      CLOUDY    57  56  96 CALM      30.11R                  
JBLM-FT LEWIS  CLOUDY    60  60  99 SE3       30.09S                  
TACOMA NARROWS CLOUDY    59  56  89 CALM      30.11R                  
$$
 
WAZ001-503-506-510-514-515-231600-
NORTH INTERIOR
  
CITY           SKY/WX    TMP DP  RH WIND       PRES   REMARKS
BELLINGHAM     SUNNY     61  55  81 S8        30.07R                  
FRIDAY HARBOR  CLOUDY    56  54  93 E6        30.08S                  
EASTSOUND        N/A     59  57  94 S8        30.05S                  
PORT ANGELES   SUNNY     60  55  83 W8        30.10R                  
EDIZ HOOK      FAIR      59  54  83 W8        30.09R                  
PORT TOWNSEND  PTSUNNY   61  57  88 E5        30.09R                  
NAS WHIDBEY    FOG       58  55  90 SW9       30.13S VSB 1            
ARLINGTON        N/A     61  55  81 N7        30.10S                  
BURLINGTON     CLOUDY    61  57  88 S6        30.10R                  
$$
 
WAZ020-022-039-040-504-511-512-231600-
SOUTHWEST INTERIOR
  
CITY           SKY/WX    TMP DP  RH WIND       PRES   REMARKS
SHELTON        CLOUDY    60  55  83 S5        30.08R                  
OLYMPIA        CLOUDY    60  56  86 CALM      30.10R                  
CHEHALIS       PTSUNNY   61  59  94 CALM      30.11R FOG              
KELSO          CLOUDY    62  56  80 NW6       30.11R                  
VANCOUVER      CLOUDY    64  55  72 VRB5      30.09R                  
SCAPPOOSE, OR  CLOUDY    64  57  78 N6        30.08S                  
PORTLAND, OR   PTSUNNY   64  56  75 NW7       30.09S                  
$$
 
WAZ021-516-517-231600-
WASHINGTON COAST
  
CITY           SKY/WX    TMP DP  RH WIND       PRES   REMARKS
FORKS          CLOUDY    60  56  86 N5        30.11R                  
HOQUIAM        MOSUNNY   59  57  93 CALM      30.11R                  
ASTORIA, OR    CLOUDY    63  57  81 NW6       30.10S                  
$$
 
WAZ019-023-024-040-567>569-231600-
CASCADE MOUNTAINS AND COLUMBIA GORGE
  
CITY           SKY/WX    TMP DP  RH WIND       PRES   REMARKS
STAMPEDE PASS  PTSUNNY   52  49  89 SW7       30.13S                  
TROUTDALE, OR  CLOUDY    63  55  75 VRB3      30.09R                  
HOOD RIVER, OR MOSUNNY   66  54  63 CALM      30.02S                  
THE DALLES, OR MOSUNNY   71  54  54 NW9       29.98S                  
$$

WAZ026-027-041>044-520-521-231600-
EAST SLOPES
  
CITY           SKY/WX    TMP DP  RH WIND       PRES   REMARKS
OMAK           CLOUDY    72  50  45 SE6       29.97S                  
WENATCHEE      PTSUNNY   72  49  44 NW7       29.97R                  
ELLENSBURG     PTSUNNY   71  51  49 NW15G22   29.99S                  
YAKIMA         MOSUNNY   73  51  46 N6        29.97S                  
SUNNYSIDE ARPT SUNNY     69  56  63 CALM      29.95S                  
YAKIMA TC      FAIR      73  47  40 NE6       29.96S                  
$$

WAZ028-034-035-231600-
COLUMBIA BASIN
  
CITY           SKY/WX    TMP DP  RH WIND       PRES   REMARKS
EPHRATA        MOSUNNY   72  50  45 NE8       29.96R                  
MOSES LAKE     SUNNY     71  54  54 E3        29.96S                  
PASCO          SUNNY     78  50  37 S10       29.94S                  
RICHLAND ARPT  SUNNY     78  52  39 S6        29.94S                  
HERMISTON, OR  SUNNY     76  48  37 SW5       29.96S                  
$$

WAZ036>038-231600-
NORTHEAST WASHINGTON
  
CITY           SKY/WX    TMP DP  RH WIND       PRES   REMARKS
SPOKANE GEIGER MOSUNNY   72  52  49 E6        30.04R                  
SPOKANE FELTS  SUNNY     71  55  56 CALM      30.03R                  
FAIRCHILD AFB  MOSUNNY   73  48  41 E5        30.04R                  
COEURDALENE,ID SUNNY     71  57  61 NE9       30.05S                  
DEER PARK      SUNNY     73  54  51 N6        30.04R                  
$$

WAZ029>033-231600-
SOUTHEAST WASHINGTON
  
CITY           SKY/WX    TMP DP  RH WIND       PRES   REMARKS
PULLMAN        SUNNY     71  51  49 CALM      30.05S                  
LEWISTON, ID   SUNNY     73  52  47 VRB7      30.00R                  
WALLA WALLA    SUNNY     76  46  34 S6        29.98S                  
PENDLETON, OR  SUNNY     70  42  36 SE7       30.00R                  
$$